This is the latest recevied weather packets stored in our database for station/object OK2PAT-12. If no packets are shown the sender has not sent any weather packets the latest 10 day(s).
| Time | Temp. | Humidity | Pressure | Rain* | Wind** | Luminosity | Snow |
|---|---|---|---|---|---|---|---|
| 1788123153 | 21.11° C | 78% | 1017 hPa | - | - | - | - |
| 1788121954 | 21.11° C | 78% | 1016.9 hPa | - | - | - | - |
| 1788121353 | 21.67° C | 77% | 1016.8 hPa | - | - | - | - |
| 1788120152 | 21.67° C | 76% | 1016.8 hPa | - | - | - | - |
| 1788118952 | 21.67° C | 76% | 1016.9 hPa | - | - | - | - |
| 1788118352 | 22.22° C | 75% | 1016.8 hPa | - | - | - | - |
| 1788117752 | 22.22° C | 76% | 1016.8 hPa | - | - | - | - |
| 1788117152 | 22.22° C | 76% | 1016.7 hPa | - | - | - | - |
| 1788116552 | 22.22° C | 75% | 1016.7 hPa | - | - | - | - |
| 1788114751 | 22.22° C | 74% | 1016.4 hPa | - | - | - | - |
| 1788114151 | 22.78° C | 74% | 1016.4 hPa | - | - | - | - |
| 1788112949 | 22.78° C | 72% | 1016.2 hPa | - | - | - | - |
| 1788112349 | 23.33° C | 71% | 1016.2 hPa | - | - | - | - |
| 1788111149 | 23.89° C | 69% | 1016.1 hPa | - | - | - | - |
| 1788110549 | 24.44° C | 68% | 1016 hPa | - | - | - | - |
| 1788109349 | 25° C | 66% | 1016 hPa | - | - | - | - |
| 1788108749 | 25.56° C | 66% | 1016 hPa | - | - | - | - |
| 1788106945 | 26.11° C | 64% | 1016 hPa | - | - | - | - |
| 1788106345 | 26.11° C | 63% | 1016 hPa | - | - | - | - |
| 1788105745 | 26.67° C | 63% | 1016 hPa | - | - | - | - |
| 1788104545 | 27.22° C | 62% | 1016.2 hPa | - | - | - | - |
| 1788103945 | 27.78° C | 62% | 1016.2 hPa | - | - | - | - |
| 1788103345 | 27.78° C | 61% | 1016.2 hPa | - | - | - | - |
| 1788102145 | 27.22° C | 62% | 1016.2 hPa | - | - | - | - |
| 1788101545 | 26.67° C | 63% | 1016.3 hPa | - | - | - | - |
* Rain since midnight (hover to see other rain measurements)
** Current wind speed in m/s (hover to see current wind gust speed)